Terug naar catalogus

W75/ABS-1B

HOT BIRD 3

ActiefCommunicatieGEO
NORAD 24931·PAYLOAD·🇪🇺 EU

Gelanceerd Sep 2, 1997 vanaf Guiana Space Centre

Loading…

TLE

VersSource: Space-Track

Epoch: Sep 14, 2026, 05:45 UTC

1 24931U 97049A   26257.23981700 -.00000135  00000-0  00000-0 0  9990
2 24931  11.5009  31.3894 0022398  54.1944 290.2635  1.02480338107606

Volg W75/ABS-1B in realtime met AllMySat

Download on the App Store